Flag for Portugal Weather past 2 weeks in Ponta Delgada, Azores, Portugal

Now
73 °F

Passing clouds.


Feels Like: 76 °F
Forecast: 68 / 74 °F
Wind: 10 mph from North

Location: Ponta Delgada / Nordela Acores

Current Time: Jul 6, 2015 at 5:53:27 PM

Latest Report: Jul 6, 2015 at 5:30 PM


Visibility: N/A

Pressure: 30.18 "Hg

Humidity: 65%

Dew point: 61 °F

Location of Ponta DelgadaLocation

Historic Weather in Ponta Delgada — Graph

°F

Ponta Delgada temperature yesterday

Maximum temperature yesterday: 72 °F (at 12:00 PM)
Minimum temperature yesterday: 64 °F (at 1:00 AM)
Average temperature yesterday: 68 °F

Past Weeks' High & Low Weather Summary

 TemperatureHumidityPressure
High75 °F (Jun 23, 5:00 PM)100% (Jun 22, 5:30 PM)30.30 "Hg (Jun 22, 5:30 PM)
Low59 °F (Jun 22, 5:00 AM)53% (Jun 30, 2:30 PM)29.89 "Hg (Jul 2, 6:00 PM)
Average68 °F84%30.14 "Hg
* Reported Jun 21 5:00 PM — Jul 6 5:00 PM, Ponta Delgada, Weather by CustomWeather, © 2015

Note: Actual official high and low records may vary slightly from our data, if they occured in-between our weather recording intervals... More about our weather records

Advertising

Ponta Delgada weather history for previous 24 hours

 ConditionsComfort  
Time TempWeatherWind HumidityBarometerVisibility
5:00 PM
Mon, Jul 6
73 °FPassing clouds.12 mph65%30.18 "HgN/A
4:30 PM75 °FPassing clouds.13 mph61%30.18 "HgN/A
4:00 PM72 °FPassing clouds.10 mph73%30.18 "HgN/A
3:30 PM72 °FPassing clouds.14 mph73%30.18 "HgN/A
3:00 PM72 °FPassing clouds.16 mph78%30.18 "HgN/A
2:30 PM72 °FPassing clouds.13 mph73%30.15 "HgN/A
2:00 PM72 °FPassing clouds.10 mph78%30.15 "HgN/A
1:30 PM73 °FPassing clouds.15 mph74%30.15 "HgN/A
1:00 PM73 °FPassing clouds.16 mph69%30.15 "HgN/A
12:30 PM72 °FPassing clouds.16 mph83%30.18 "HgN/A
12:00 PM72 °FPassing clouds.14 mph83%30.18 "HgN/A
11:30 AM72 °FPassing clouds.14 mph83%30.15 "HgN/A
11:00 AM72 °FScattered clouds.13 mph83%30.15 "HgN/A
10:30 AM70 °FBroken clouds.13 mph94%30.15 "HgN/A
10:00 AM68 °FSprinkles. Fog.14 mph100%30.15 "Hg1 mi
9:30 AM70 °FMild.13 mph94%30.15 "Hg1 mi
9:00 AM70 °FPartly sunny.14 mph94%30.15 "Hg5 mi
8:30 AM70 °FPartly sunny.14 mph94%30.15 "Hg5 mi
8:00 AM70 °FDrizzle. Partly sunny.13 mph94%30.15 "Hg5 mi
7:30 AM70 °FPartly sunny.13 mph94%30.15 "HgN/A
7:00 AM70 °FPartly cloudy.13 mph94%30.15 "HgN/A
6:30 AM68 °FPartly cloudy.13 mph100%30.15 "HgN/A
6:00 AM68 °FPartly cloudy.10 mph100%30.15 "HgN/A
5:30 AM68 °FPartly cloudy.10 mph100%30.15 "HgN/A
5:00 AM70 °FPartly cloudy.10 mph94%30.15 "HgN/A
4:30 AM68 °FPartly cloudy.9 mph100%30.15 "HgN/A
4:00 AM68 °FPartly cloudy.8 mph100%30.15 "HgN/A
3:30 AM70 °FPartly cloudy.10 mph94%30.15 "HgN/A
3:00 AM70 °FPartly cloudy.8 mph94%30.18 "HgN/A
2:30 AM70 °FPartly cloudy.7 mph94%30.18 "HgN/A
2:00 AM68 °FPassing clouds.6 mph100%30.18 "HgN/A
1:30 AM68 °FPassing clouds.9 mph100%30.21 "HgN/A
1:00 AM68 °FPassing clouds.8 mph100%30.21 "HgN/A
12:30 AM68 °FPassing clouds.9 mph100%30.21 "HgN/A
12:00 AM68 °FPartly cloudy.8 mph100%30.21 "HgN/A
11:30 PM
Sun, Jul 5
68 °FPartly cloudy.8 mph100%30.21 "HgN/A
11:00 PM70 °FPassing clouds.8 mph94%30.21 "HgN/A
10:30 PM68 °FPassing clouds.8 mph100%30.21 "HgN/A
10:00 PM70 °FPartly sunny.7 mph94%30.21 "HgN/A
9:30 PM70 °FPartly sunny.9 mph88%30.21 "HgN/A
9:00 PM70 °FPartly sunny.8 mph88%30.21 "HgN/A
8:30 PM70 °FPartly sunny.7 mph88%30.21 "HgN/A
8:00 PM70 °FBroken clouds.8 mph88%30.21 "HgN/A
7:30 PM70 °FBroken clouds.8 mph88%30.21 "HgN/A
7:00 PM70 °FPartly sunny.9 mph88%30.21 "HgN/A
6:30 PM70 °FPartly sunny.7 mph88%30.24 "HgN/A
6:00 PM70 °FBroken clouds.8 mph88%30.24 "HgN/A
5:30 PM70 °FBroken clouds.8 mph88%30.24 "HgN/A
5:00 PM70 °FBroken clouds.9 mph88%30.24 "HgN/A
Weather by CustomWeather, © 2015

See weather overviewHow to use our weather pages